Weather History for KAXN - February, 2013

Change the Weather History Date:

Sunday, February 3, 2013

  Actual Average Record
Temperature  
Mean Temperature 6 °F -  
Max Temperature 10 °F 17 °F 44 °F (2005)
Min Temperature 1 °F -1 °F -33 °F (1989)
Degree Days  
Heating Degree Days 60    
Moisture  
Dew Point 1 °F    
Average Humidity 78    
Maximum Humidity 85    
Minimum Humidity 67    
Precipitation  
Precipitation 0.01 in - - ()
Sea Level Pressure  
Sea Level Pressure 30.03 in    
Wind  
Wind Speed 8 mph (NNW)    
Max Wind Speed 15 mph    
Max Gust Speed -    
Visibility 5 miles    
Events Snow    
Averages and records for this station are not official NWS values.
T = Trace of Precipitation, MM = Missing Value Source: NWS Daily Summary

Daily Weather History Graph

Daily Weather History Graph

Search for Another Location

Airport or City:

Trip Planner

Search our weather history database for the weather conditions in past years. The results will help you decide how hot, cold, wet, or windy it might be!

Date:

Astronomy

Feb. 03, 2013 Rise Set
Actual Time 7:40 AM CST 5:30 PM CST
Civil Twilight 7:09 AM CST 6:02 PM CST
Nautical Twilight 6:33 AM CST 6:37 PM CST
Astronomical Twilight 5:58 AM CST 7:12 PM CST
Moon 1:10 AM CST (2/3) 11:06 AM CST (2/3)
Length of Visible Light 10h 53m
Length of Day
9h 50m
Waning Gibbous, 48% of the Moon is Illuminated
Feb 3
Waning Gibbous
Feb 10
New
Feb 17
First Quarter
Feb 25
Full
Mar 4
Last Quarter

Hourly Weather History & Observations

Time (CST) Temp. Windchill Dew Point Humidity Pressure Visibility Wind Dir Wind Speed Gust Speed Precip Events Conditions
12:40 AM 5.0 °F -13.0 °F -0.4 °F 78% 30.00 in 10.0 mi NW 15.0 mph - N/A   Scattered Clouds
12:53 AM 5.0 °F -12.3 °F -0.0 °F 80% 30.12 in 10.0 mi NW 13.8 mph - N/A   Partly Cloudy
1:53 AM 3.0 °F -14.8 °F -0.9 °F 84% 30.10 in 10.0 mi WNW 13.8 mph - N/A   Clear
2:30 AM 1.4 °F -16.9 °F -2.2 °F 85% 30.02 in 4.0 mi WNW 13.8 mph - N/A   Scattered Clouds
2:38 AM 1.4 °F -17.6 °F -2.2 °F 85% 30.03 in 3.0 mi WNW 15.0 mph - N/A   Mostly Cloudy
2:53 AM 1.9 °F -16.9 °F -2.9 °F 80% 30.14 in 4.0 mi WNW 15.0 mph - N/A   Haze
3:53 AM 1.0 °F -18.0 °F -2.9 °F 83% 30.14 in 10.0 mi WNW 15.0 mph - N/A   Mostly Cloudy
4:14 AM 1.4 °F -16.9 °F -2.2 °F 85% 30.02 in 10.0 mi WNW 13.8 mph - N/A   Scattered Clouds
4:53 AM 1.9 °F -14.7 °F -2.9 °F 80% 30.14 in 10.0 mi NW 11.5 mph - N/A   Clear
5:53 AM 1.0 °F -12.9 °F -2.9 °F 83% 30.14 in 10.0 mi WNW 8.1 mph - N/A   Mostly Cloudy
6:53 AM 1.9 °F -7.6 °F -2.0 °F 83% 30.14 in 10.0 mi WNW 4.6 mph - N/A   Overcast
7:53 AM 3.9 °F -8.2 °F -0.0 °F 84% 30.14 in 10.0 mi NW 6.9 mph - N/A   Overcast
8:53 AM 3.9 °F -5.3 °F -0.0 °F 84% 30.13 in 8.0 mi NW 4.6 mph - 0.00 in   Overcast
9:53 AM 6.1 °F -2.8 °F -0.0 °F 76% 30.13 in 4.0 mi North 4.6 mph - 0.00 in Snow Light Snow
9:57 AM 6.8 °F -5.9 °F -0.4 °F 72% 30.03 in 2.5 mi North 8.1 mph - 0.00 in Snow Light Snow
10:08 AM 6.8 °F -2.0 °F -0.4 °F 72% 30.02 in 3.0 mi North 4.6 mph - 0.00 in Snow Light Snow
10:36 AM 6.8 °F - 1.4 °F 79% 30.02 in 2.0 mi Calm Calm - 0.00 in Snow Light Snow
10:48 AM 6.8 °F - 1.4 °F 79% 30.02 in 4.0 mi Calm Calm - 0.00 in Snow Light Snow
10:53 AM 8.1 °F - 1.9 °F 76% 30.12 in 4.0 mi Calm Calm - 0.00 in Snow Light Snow
11:53 AM 8.1 °F -2.0 °F -0.0 °F 70% 30.11 in 2.0 mi North 5.8 mph - 0.00 in Snow Light Snow
12:11 PM 8.6 °F - 1.4 °F 73% 30.00 in 4.0 mi Calm Calm - 0.00 in Snow Light Snow
12:41 PM 8.6 °F - 1.4 °F 73% 29.98 in 2.0 mi Calm Calm - 0.00 in Snow Light Snow
12:53 PM 8.1 °F - 1.9 °F 76% 30.09 in 1.8 mi Calm Calm - 0.00 in Snow Light Snow
1:02 PM 8.6 °F - 1.4 °F 73% 29.98 in 1.5 mi Calm Calm - 0.00 in Snow Light Snow
1:09 PM 8.6 °F - 1.4 °F 73% 29.98 in 1.2 mi Calm Calm - 0.00 in Snow Light Snow
1:29 PM 8.6 °F - 3.2 °F 79% 29.96 in 2.0 mi Calm Calm - 0.00 in Snow Light Snow
1:33 PM 8.6 °F - 3.2 °F 79% 29.96 in 3.0 mi Calm Calm - 0.00 in Snow Light Snow
1:53 PM 9.0 °F - 1.9 °F 73% 30.06 in 10.0 mi Calm Calm - 0.00 in   Overcast
2:53 PM 10.0 °F - 1.9 °F 70% 30.05 in 10.0 mi Calm Calm - N/A   Overcast
3:53 PM 10.0 °F - 1.0 °F 67% 30.04 in 10.0 mi Calm Calm - N/A   Overcast
4:53 PM 10.0 °F 3.6 °F 1.0 °F 67% 30.03 in 10.0 mi North 3.5 mph - N/A   Overcast
5:53 PM 9.0 °F - 1.9 °F 73% 30.04 in 10.0 mi Calm Calm - N/A   Overcast
6:48 PM 8.6 °F 0.1 °F 3.2 °F 79% 29.93 in 2.0 mi North 4.6 mph - 0.00 in Snow Light Snow
6:53 PM 9.0 °F 0.6 °F 3.0 °F 77% 30.05 in 1.8 mi North 4.6 mph - 0.00 in Snow Light Snow
7:30 PM 8.6 °F - 3.2 °F 79% 29.93 in 1.2 mi Calm Calm - 0.01 in Snow Light Snow
7:53 PM 9.0 °F -0.9 °F 3.9 °F 80% 30.04 in 2.5 mi North 5.8 mph - 0.01 in Snow Light Snow
8:08 PM 8.6 °F -1.3 °F 3.2 °F 79% 29.93 in 1.8 mi NNE 5.8 mph - 0.00 in Snow Light Snow
8:17 PM 8.6 °F -1.3 °F 3.2 °F 79% 29.93 in 2.0 mi NNE 5.8 mph - 0.00 in Snow Light Snow
8:31 PM 8.6 °F -1.3 °F 3.2 °F 79% 29.93 in 1.8 mi NNE 5.8 mph - 0.00 in Snow Light Snow
8:43 PM 8.6 °F 0.1 °F 3.2 °F 79% 29.93 in 2.5 mi NNE 4.6 mph - 0.00 in Snow Light Snow
8:53 PM 8.1 °F 1.4 °F 3.9 °F 83% 30.04 in 2.5 mi North 3.5 mph - 0.00 in Snow Light Snow
8:58 PM 8.6 °F 0.1 °F 3.2 °F 79% 29.93 in 3.0 mi North 4.6 mph - 0.00 in Snow Light Snow
9:22 PM 8.6 °F -2.6 °F 3.2 °F 79% 29.93 in 2.5 mi NNE 6.9 mph - 0.00 in Snow Light Snow
9:32 PM 8.6 °F -1.3 °F 3.2 °F 79% 29.93 in 4.0 mi NNE 5.8 mph - 0.00 in Snow Light Snow
9:53 PM 7.0 °F -3.3 °F 1.9 °F 80% 30.05 in 4.0 mi NNE 5.8 mph - 0.00 in   Haze
10:53 PM 7.0 °F -4.5 °F 1.9 °F 80% 30.05 in 10.0 mi North 6.9 mph - N/A   Overcast
11:53 PM 5.0 °F -4.1 °F 1.0 °F 84% 30.05 in 10.0 mi North 4.6 mph - N/A   Overcast